Year,Month,Day,Hour,Minute,Value (Times are PST for temperature in C)
2017,02,13,00,00,2.40
2017,02,13,00,01,2.40
2017,02,13,00,02,2.40
2017,02,13,00,03,2.40
2017,02,13,00,04,2.40
2017,02,13,00,05,2.40
2017,02,13,00,06,2.40
2017,02,13,00,07,2.40
2017,02,13,00,08,2.50
2017,02,13,00,09,2.50
2017,02,13,00,10,2.60
2017,02,13,00,11,2.60
2017,02,13,00,12,2.60
2017,02,13,00,13,2.70
2017,02,13,00,14,2.70
2017,02,13,00,15,2.70
2017,02,13,00,16,2.70
2017,02,13,00,17,2.70
2017,02,13,00,18,2.70
2017,02,13,00,19,2.70
2017,02,13,00,20,2.70
2017,02,13,00,21,2.70
2017,02,13,00,22,2.70
2017,02,13,00,23,2.60
2017,02,13,00,24,2.60
2017,02,13,00,25,2.60
2017,02,13,00,26,2.60
2017,02,13,00,27,2.60
2017,02,13,00,28,2.50
2017,02,13,00,29,2.50
2017,02,13,00,30,2.50
2017,02,13,00,31,2.50
2017,02,13,00,32,2.50
2017,02,13,00,33,2.50
2017,02,13,00,34,2.50
2017,02,13,00,35,2.50
2017,02,13,00,36,2.50
2017,02,13,00,37,2.50
2017,02,13,00,38,2.50
2017,02,13,00,39,2.50
2017,02,13,00,40,2.50
2017,02,13,00,41,2.50
2017,02,13,00,42,2.50
2017,02,13,00,43,2.40
2017,02,13,00,44,2.40
2017,02,13,00,45,2.40
2017,02,13,00,46,2.30
2017,02,13,00,47,2.30
2017,02,13,00,48,2.30
2017,02,13,00,49,2.30
2017,02,13,00,50,2.30
2017,02,13,00,51,2.30
2017,02,13,00,52,2.30
2017,02,13,00,53,2.30
2017,02,13,00,54,2.30
2017,02,13,00,55,2.30
2017,02,13,00,56,2.30
2017,02,13,00,57,2.30
2017,02,13,00,58,2.30
2017,02,13,00,59,2.30
2017,02,13,01,00,2.30
2017,02,13,01,01,2.30
2017,02,13,01,02,2.30
2017,02,13,01,03,2.30
2017,02,13,01,04,2.30
2017,02,13,01,05,2.30
2017,02,13,01,06,2.30
2017,02,13,01,07,2.30
2017,02,13,01,08,2.30
2017,02,13,01,09,2.30
2017,02,13,01,10,2.30
2017,02,13,01,11,2.30
2017,02,13,01,12,2.30
2017,02,13,01,13,2.30
2017,02,13,01,14,2.30
2017,02,13,01,15,2.30
2017,02,13,01,16,2.30
2017,02,13,01,17,2.20
2017,02,13,01,18,2.20
2017,02,13,01,19,2.20
2017,02,13,01,20,2.20
2017,02,13,01,21,2.20
2017,02,13,01,22,2.20
2017,02,13,01,23,2.20
2017,02,13,01,24,2.20
2017,02,13,01,25,2.20
2017,02,13,01,26,2.20
2017,02,13,01,27,2.20
2017,02,13,01,28,2.20
2017,02,13,01,29,2.20
2017,02,13,01,30,2.20
2017,02,13,01,31,2.20
2017,02,13,01,32,2.20
2017,02,13,01,33,2.20
2017,02,13,01,34,2.20
2017,02,13,01,35,2.20
2017,02,13,01,36,2.20
2017,02,13,01,37,2.20
2017,02,13,01,38,2.10
2017,02,13,01,39,2.10
2017,02,13,01,40,2.10
2017,02,13,01,41,2.10
2017,02,13,01,42,2.10
2017,02,13,01,43,2.20
2017,02,13,01,44,2.20
2017,02,13,01,45,2.20
2017,02,13,01,46,2.20
2017,02,13,01,47,2.20
2017,02,13,01,48,2.20
2017,02,13,01,49,2.20
2017,02,13,01,50,2.20
2017,02,13,01,51,2.20
2017,02,13,01,52,2.20
2017,02,13,01,53,2.20
2017,02,13,01,54,2.20
2017,02,13,01,55,2.20
2017,02,13,01,56,2.20
2017,02,13,01,57,2.20
2017,02,13,01,58,2.10
2017,02,13,01,59,2.10
2017,02,13,02,00,2.10
2017,02,13,02,01,2.00
2017,02,13,02,02,2.00
2017,02,13,02,03,2.00
2017,02,13,02,04,2.00
2017,02,13,02,05,1.90
2017,02,13,02,06,1.90
2017,02,13,02,07,1.90
2017,02,13,02,08,1.90
2017,02,13,02,09,1.90
2017,02,13,02,10,1.90
2017,02,13,02,11,1.90
2017,02,13,02,12,1.90
2017,02,13,02,13,1.90
2017,02,13,02,14,1.90
2017,02,13,02,15,1.90
2017,02,13,02,16,1.90
2017,02,13,02,17,1.80
2017,02,13,02,18,1.80
2017,02,13,02,19,1.80
2017,02,13,02,20,1.80
2017,02,13,02,21,1.80
2017,02,13,02,22,1.90
2017,02,13,02,23,1.90
2017,02,13,02,24,1.90
2017,02,13,02,25,1.80
2017,02,13,02,26,1.80
2017,02,13,02,27,1.80
2017,02,13,02,28,1.80
2017,02,13,02,29,1.80
2017,02,13,02,30,1.80
2017,02,13,02,31,1.80
2017,02,13,02,32,1.80
2017,02,13,02,33,1.80
2017,02,13,02,34,1.80
2017,02,13,02,35,1.80
2017,02,13,02,36,1.80
2017,02,13,02,37,1.80
2017,02,13,02,38,1.80
2017,02,13,02,39,1.80
2017,02,13,02,40,1.80
2017,02,13,02,41,1.80
2017,02,13,02,42,1.80
2017,02,13,02,43,1.80
2017,02,13,02,44,1.80
2017,02,13,02,45,1.80
2017,02,13,02,46,1.80
2017,02,13,02,47,1.80
2017,02,13,02,48,1.80
2017,02,13,02,49,1.80
2017,02,13,02,50,1.80
2017,02,13,02,51,1.80
2017,02,13,02,52,1.80
2017,02,13,02,53,1.80
2017,02,13,02,54,1.80
2017,02,13,02,55,1.80
2017,02,13,02,56,1.80
2017,02,13,02,57,1.80
2017,02,13,02,58,1.80
2017,02,13,02,59,1.80
2017,02,13,03,00,1.70
2017,02,13,03,01,1.70
2017,02,13,03,02,1.70
2017,02,13,03,03,1.70
2017,02,13,03,04,1.70
2017,02,13,03,05,1.70
2017,02,13,03,06,1.70
2017,02,13,03,07,1.70
2017,02,13,03,08,1.70
2017,02,13,03,09,1.70
2017,02,13,03,10,1.70
2017,02,13,03,11,1.80
2017,02,13,03,12,1.80
2017,02,13,03,13,1.80
2017,02,13,03,14,1.80
2017,02,13,03,15,1.80
2017,02,13,03,16,1.80
2017,02,13,03,17,1.80
2017,02,13,03,18,1.90
2017,02,13,03,19,1.90
2017,02,13,03,20,1.90
2017,02,13,03,21,2.00
2017,02,13,03,22,2.00
2017,02,13,03,23,2.00
2017,02,13,03,24,2.10
2017,02,13,03,25,2.10
2017,02,13,03,26,2.10
2017,02,13,03,27,2.10
2017,02,13,03,28,2.20
2017,02,13,03,29,2.20
2017,02,13,03,30,2.20
2017,02,13,03,31,2.20
2017,02,13,03,32,2.30
2017,02,13,03,33,2.30
2017,02,13,03,34,2.30
2017,02,13,03,35,2.40
2017,02,13,03,36,2.50
2017,02,13,03,37,2.50
2017,02,13,03,38,2.60
2017,02,13,03,39,2.60
2017,02,13,03,40,2.70
2017,02,13,03,41,2.70
2017,02,13,03,42,2.80
2017,02,13,03,43,2.80
2017,02,13,03,44,2.80
2017,02,13,03,45,2.90
2017,02,13,03,46,2.90
2017,02,13,03,47,3.00
2017,02,13,03,48,3.00
2017,02,13,03,49,3.00
2017,02,13,03,50,3.00
2017,02,13,03,51,3.00
2017,02,13,03,52,3.00
2017,02,13,03,53,3.00
2017,02,13,03,54,3.00
2017,02,13,03,55,3.00
2017,02,13,03,56,3.00
2017,02,13,03,57,3.00
2017,02,13,03,58,3.00
2017,02,13,03,59,2.90
2017,02,13,04,00,2.90
2017,02,13,04,01,2.90
2017,02,13,04,02,2.90
2017,02,13,04,03,2.90
2017,02,13,04,04,2.90
2017,02,13,04,08,2.90
2017,02,13,04,09,2.80
2017,02,13,04,10,2.80
2017,02,13,04,11,2.80
2017,02,13,04,12,2.80
2017,02,13,04,13,2.70
2017,02,13,04,14,2.70
2017,02,13,04,15,2.70
2017,02,13,04,16,2.60
2017,02,13,04,17,2.60
2017,02,13,04,18,2.60
2017,02,13,04,19,2.50
2017,02,13,04,20,2.50
2017,02,13,04,21,2.50
2017,02,13,04,22,2.50
2017,02,13,04,23,2.50
2017,02,13,04,24,2.50
2017,02,13,04,25,2.50
2017,02,13,04,26,2.50
2017,02,13,04,27,2.50
2017,02,13,04,28,2.50
2017,02,13,04,29,2.50
2017,02,13,04,30,2.50
2017,02,13,04,31,2.50
2017,02,13,04,32,2.40
2017,02,13,04,33,2.40
2017,02,13,04,34,2.40
2017,02,13,04,35,2.40
2017,02,13,04,36,2.40
2017,02,13,04,37,2.40
2017,02,13,04,38,2.30
2017,02,13,04,39,2.30
2017,02,13,04,40,2.30
2017,02,13,04,41,2.20
2017,02,13,04,42,2.20
2017,02,13,04,43,2.10
2017,02,13,04,44,2.10
2017,02,13,04,45,2.00
2017,02,13,04,46,2.00
2017,02,13,04,47,1.90
2017,02,13,04,48,1.90
2017,02,13,04,49,1.90
2017,02,13,04,50,1.90
2017,02,13,04,51,1.90
2017,02,13,04,52,1.90
2017,02,13,04,53,2.00
2017,02,13,04,54,2.00
2017,02,13,04,55,2.00
2017,02,13,04,56,2.10
2017,02,13,04,57,2.10
2017,02,13,04,58,2.20
2017,02,13,04,59,2.20
2017,02,13,05,00,2.20
2017,02,13,05,01,2.30
2017,02,13,05,02,2.30
2017,02,13,05,03,2.30
2017,02,13,05,04,2.30
2017,02,13,05,05,2.30
2017,02,13,05,06,2.30
2017,02,13,05,07,2.30
2017,02,13,05,08,2.30
2017,02,13,05,09,2.30
2017,02,13,05,10,2.30
2017,02,13,05,11,2.30
2017,02,13,05,12,2.30
2017,02,13,05,13,2.30
2017,02,13,05,14,2.40
2017,02,13,05,15,2.40
2017,02,13,05,16,2.50
2017,02,13,05,17,2.50
2017,02,13,05,18,2.60
2017,02,13,05,19,2.70
2017,02,13,05,20,2.80
2017,02,13,05,21,2.80
2017,02,13,05,22,2.90
2017,02,13,05,23,2.90
2017,02,13,05,24,3.00
2017,02,13,05,25,3.00
2017,02,13,05,26,3.10
2017,02,13,05,27,3.10
2017,02,13,05,28,3.10
2017,02,13,05,29,3.20
2017,02,13,05,30,3.20
2017,02,13,05,31,3.30
2017,02,13,05,32,3.30
2017,02,13,05,33,3.40
2017,02,13,05,34,3.50
2017,02,13,05,35,3.60
2017,02,13,05,36,3.60
2017,02,13,05,37,3.70
2017,02,13,05,38,3.70
2017,02,13,05,39,3.70
2017,02,13,05,40,3.70
2017,02,13,05,41,3.70
2017,02,13,05,42,3.70
2017,02,13,05,43,3.70
2017,02,13,05,44,3.70
2017,02,13,05,45,3.70
2017,02,13,05,46,3.70
2017,02,13,05,47,3.70
2017,02,13,05,48,3.60
2017,02,13,05,49,3.60
2017,02,13,05,50,3.60
2017,02,13,05,51,3.60
2017,02,13,05,52,3.60
2017,02,13,05,53,3.60
2017,02,13,05,54,3.60
2017,02,13,05,55,3.60
2017,02,13,05,56,3.60
2017,02,13,05,57,3.60
2017,02,13,05,58,3.60
2017,02,13,05,59,3.60
2017,02,13,06,00,3.60
2017,02,13,06,01,3.50
2017,02,13,06,02,3.50
2017,02,13,06,03,3.50
2017,02,13,06,04,3.50
2017,02,13,06,05,3.50
2017,02,13,06,06,3.50
2017,02,13,06,07,3.50
2017,02,13,06,08,3.40
2017,02,13,06,09,3.40
2017,02,13,06,10,3.40
2017,02,13,06,11,3.40
2017,02,13,06,12,3.40
2017,02,13,06,13,3.40
2017,02,13,06,14,3.40
2017,02,13,06,15,3.40
2017,02,13,06,16,3.40
2017,02,13,06,17,3.40
2017,02,13,06,18,3.40
2017,02,13,06,19,3.40
2017,02,13,06,20,3.40
2017,02,13,06,21,3.40
2017,02,13,06,22,3.40
2017,02,13,06,23,3.30
2017,02,13,06,24,3.40
2017,02,13,06,25,3.30
2017,02,13,06,26,3.30
2017,02,13,06,27,3.30
2017,02,13,06,28,3.30
2017,02,13,06,29,3.30
2017,02,13,06,30,3.30
2017,02,13,06,31,3.30
2017,02,13,06,32,3.30
2017,02,13,06,33,3.30
2017,02,13,06,34,3.30
2017,02,13,06,35,3.30
2017,02,13,06,36,3.30
2017,02,13,06,37,3.40
2017,02,13,06,38,3.40
2017,02,13,06,39,3.40
2017,02,13,06,40,3.30
2017,02,13,06,41,3.30
2017,02,13,06,42,3.30
2017,02,13,06,43,3.30
2017,02,13,06,44,3.30
2017,02,13,06,45,3.30
2017,02,13,06,46,3.30
2017,02,13,06,47,3.30
2017,02,13,06,48,3.30
2017,02,13,06,49,3.20
2017,02,13,06,50,3.20
2017,02,13,06,51,3.20
2017,02,13,06,52,3.20
2017,02,13,06,53,3.20
2017,02,13,06,54,3.20
2017,02,13,06,55,3.20
2017,02,13,06,56,3.20
2017,02,13,06,57,3.20
2017,02,13,06,58,3.20
2017,02,13,06,59,3.20
2017,02,13,07,00,3.20
2017,02,13,07,01,3.20
2017,02,13,07,02,3.20
2017,02,13,07,03,3.20
2017,02,13,07,04,3.20
2017,02,13,07,05,3.20
2017,02,13,07,06,3.20
2017,02,13,07,07,3.20
2017,02,13,07,08,3.20
2017,02,13,07,09,3.10
2017,02,13,07,10,3.10
2017,02,13,07,11,3.10
2017,02,13,07,12,3.10
2017,02,13,07,13,3.10
2017,02,13,07,14,3.10
2017,02,13,07,15,3.10
2017,02,13,07,16,3.10
2017,02,13,07,17,3.10
2017,02,13,07,18,3.00
2017,02,13,07,19,3.00
2017,02,13,07,20,3.00
2017,02,13,07,21,3.00
2017,02,13,07,22,3.00
2017,02,13,07,23,3.00
2017,02,13,07,24,3.00
2017,02,13,07,25,2.90
2017,02,13,07,26,2.90
2017,02,13,07,27,2.90
2017,02,13,07,28,2.90
2017,02,13,07,29,2.90
2017,02,13,07,30,2.90
2017,02,13,07,31,2.90
2017,02,13,07,32,2.90
2017,02,13,07,33,3.00
2017,02,13,07,34,3.00
2017,02,13,07,35,3.00
2017,02,13,07,36,3.00
2017,02,13,07,37,3.00
2017,02,13,07,38,3.10
2017,02,13,07,39,3.10
2017,02,13,07,40,3.10
2017,02,13,07,41,3.10
2017,02,13,07,42,3.10
2017,02,13,07,43,3.10
2017,02,13,07,44,3.20
2017,02,13,07,45,3.20
2017,02,13,07,46,3.20
2017,02,13,07,47,3.20
2017,02,13,07,48,3.30
2017,02,13,07,49,3.30
2017,02,13,07,50,3.20
2017,02,13,07,51,3.20
2017,02,13,07,52,3.20
2017,02,13,07,53,3.20
2017,02,13,07,54,3.20
2017,02,13,07,55,3.20
2017,02,13,07,56,3.20
2017,02,13,07,57,3.20
2017,02,13,07,58,3.20
2017,02,13,07,59,3.30
2017,02,13,08,00,3.30
2017,02,13,08,01,3.30
2017,02,13,08,02,3.30
2017,02,13,08,03,3.30
2017,02,13,08,04,3.30
2017,02,13,08,05,3.30
2017,02,13,08,06,3.30
2017,02,13,08,07,3.30
2017,02,13,08,08,3.40
2017,02,13,08,09,3.40
2017,02,13,08,10,3.40
2017,02,13,08,11,3.40
2017,02,13,08,12,3.40
2017,02,13,08,13,3.40
2017,02,13,08,14,3.50
2017,02,13,08,15,3.50
2017,02,13,08,16,3.60
2017,02,13,08,17,3.60
2017,02,13,08,18,3.60
2017,02,13,08,19,3.60
2017,02,13,08,20,3.70
2017,02,13,08,21,3.70
2017,02,13,08,22,3.70
2017,02,13,08,23,3.70
2017,02,13,08,24,3.80
2017,02,13,08,25,3.80
2017,02,13,08,26,3.90
2017,02,13,08,27,3.90
2017,02,13,08,28,4.00
2017,02,13,08,29,4.00
2017,02,13,08,30,4.10
2017,02,13,08,31,4.10
2017,02,13,08,32,4.10
2017,02,13,08,33,4.20
2017,02,13,08,34,4.20
2017,02,13,08,35,4.20
2017,02,13,08,36,4.30
2017,02,13,08,37,4.30
2017,02,13,08,38,4.30
2017,02,13,08,39,4.30
2017,02,13,08,40,4.30
2017,02,13,08,41,4.30
2017,02,13,08,42,4.40
2017,02,13,08,43,4.40
2017,02,13,08,44,4.40
2017,02,13,08,45,4.40
2017,02,13,08,46,4.50
2017,02,13,08,47,4.60
2017,02,13,08,48,4.60
2017,02,13,08,49,4.70
2017,02,13,08,50,4.70
2017,02,13,08,51,4.70
2017,02,13,08,52,4.70
2017,02,13,08,53,4.70
2017,02,13,08,54,4.80
2017,02,13,08,55,4.80
2017,02,13,08,56,4.80
2017,02,13,08,57,4.80
2017,02,13,08,58,4.80
2017,02,13,08,59,4.80
2017,02,13,09,00,4.80
2017,02,13,09,01,4.80
2017,02,13,09,02,4.80
2017,02,13,09,03,4.80
2017,02,13,09,04,4.80
2017,02,13,09,05,4.80
2017,02,13,09,06,4.80
2017,02,13,09,07,4.80
2017,02,13,09,08,4.80
2017,02,13,09,09,4.80
2017,02,13,09,10,4.80
2017,02,13,09,11,4.80
2017,02,13,09,12,4.90
2017,02,13,09,13,4.90
2017,02,13,09,14,4.90
2017,02,13,09,15,4.90
2017,02,13,09,16,4.90
2017,02,13,09,17,4.90
2017,02,13,09,18,4.90
2017,02,13,09,19,5.00
2017,02,13,09,20,5.00
2017,02,13,09,21,5.10
2017,02,13,09,22,5.10
2017,02,13,09,23,5.10
2017,02,13,09,24,5.20
2017,02,13,09,25,5.20
2017,02,13,09,26,5.20
2017,02,13,09,27,5.20
2017,02,13,09,28,5.20
2017,02,13,09,29,5.20
2017,02,13,09,30,5.20
2017,02,13,09,31,5.30
2017,02,13,09,32,5.30
2017,02,13,09,33,5.30
2017,02,13,09,34,5.30
2017,02,13,09,35,5.30
2017,02,13,09,36,5.30
2017,02,13,09,37,5.40
2017,02,13,09,38,5.40
2017,02,13,09,39,5.40
2017,02,13,09,40,5.40
2017,02,13,09,41,5.40
2017,02,13,09,42,5.40
2017,02,13,09,43,5.40
2017,02,13,09,44,5.40
2017,02,13,09,45,5.40
2017,02,13,09,46,5.40
2017,02,13,09,47,5.40
2017,02,13,09,48,5.40
2017,02,13,09,49,5.40
2017,02,13,09,50,5.40
2017,02,13,09,51,5.50
2017,02,13,09,52,5.50
2017,02,13,09,53,5.60
2017,02,13,09,54,5.60
2017,02,13,09,55,5.60
2017,02,13,09,56,5.70
2017,02,13,09,57,5.70
2017,02,13,09,58,5.70
2017,02,13,09,59,5.70
2017,02,13,10,00,5.70
2017,02,13,10,01,5.70
2017,02,13,10,02,5.80
2017,02,13,10,03,5.80
2017,02,13,10,04,5.80
2017,02,13,10,05,5.80
2017,02,13,10,06,5.80
2017,02,13,10,07,5.80
2017,02,13,10,08,5.80
2017,02,13,10,09,5.80
2017,02,13,10,10,5.90
2017,02,13,10,11,5.90
2017,02,13,10,12,6.00
2017,02,13,10,13,6.00
2017,02,13,10,14,6.10
2017,02,13,10,15,6.10
2017,02,13,10,16,6.20
2017,02,13,10,17,6.20
2017,02,13,10,18,6.30
2017,02,13,10,19,6.30
2017,02,13,10,20,6.30
2017,02,13,10,21,6.30
2017,02,13,10,22,6.40
2017,02,13,10,23,6.40
2017,02,13,10,24,6.40
2017,02,13,10,25,6.40
2017,02,13,10,26,6.50
2017,02,13,10,27,6.60
2017,02,13,10,28,6.70
2017,02,13,10,29,6.70
2017,02,13,10,30,6.80
2017,02,13,10,31,6.80
2017,02,13,10,32,6.90
2017,02,13,10,33,6.90
2017,02,13,10,34,6.90
2017,02,13,10,35,6.90
2017,02,13,10,36,6.90
2017,02,13,10,37,7.00
2017,02,13,10,38,7.00
2017,02,13,10,39,7.00
2017,02,13,10,40,7.10
2017,02,13,10,41,7.10
2017,02,13,10,42,7.10
2017,02,13,10,43,7.10
2017,02,13,10,44,7.10
2017,02,13,10,45,7.10
2017,02,13,10,46,7.10
2017,02,13,10,47,7.10
2017,02,13,10,48,7.10
2017,02,13,10,49,7.10
2017,02,13,10,50,7.10
2017,02,13,10,51,7.10
2017,02,13,10,52,7.10
2017,02,13,10,53,7.00
2017,02,13,10,54,7.00
2017,02,13,10,55,6.90
2017,02,13,10,56,6.90
2017,02,13,10,57,6.90
2017,02,13,10,58,6.90
2017,02,13,10,59,6.90
2017,02,13,11,00,6.90
2017,02,13,11,01,6.80
2017,02,13,11,02,6.80
2017,02,13,11,03,6.80
2017,02,13,11,04,6.70
2017,02,13,11,05,6.70
2017,02,13,11,06,6.80
2017,02,13,11,07,6.80
2017,02,13,11,08,6.80
2017,02,13,11,09,6.80
2017,02,13,11,10,6.90
2017,02,13,11,11,6.80
2017,02,13,11,12,6.90
2017,02,13,11,13,6.80
2017,02,13,11,14,6.80
2017,02,13,11,15,6.80
2017,02,13,11,16,6.80
2017,02,13,11,17,6.70
2017,02,13,11,18,6.70
2017,02,13,11,19,6.70
2017,02,13,11,20,6.60
2017,02,13,11,21,6.60
2017,02,13,11,22,6.60
2017,02,13,11,23,6.70
2017,02,13,11,24,6.70
2017,02,13,11,25,6.70
2017,02,13,11,26,6.70
2017,02,13,11,27,6.80
2017,02,13,11,28,6.80
2017,02,13,11,29,6.80
2017,02,13,11,30,6.80
2017,02,13,11,31,6.80
2017,02,13,11,32,6.80
2017,02,13,11,33,6.80
2017,02,13,11,34,6.80
2017,02,13,11,35,6.80
2017,02,13,11,36,6.90
2017,02,13,11,37,6.90
2017,02,13,11,38,6.90
2017,02,13,11,39,6.90
2017,02,13,11,40,7.00
2017,02,13,11,41,7.00
2017,02,13,11,42,7.00
2017,02,13,11,43,7.10
2017,02,13,11,44,7.10
2017,02,13,11,45,7.10
2017,02,13,11,46,7.10
2017,02,13,11,47,7.20
2017,02,13,11,48,7.30
2017,02,13,11,49,7.30
2017,02,13,11,50,7.40
2017,02,13,11,51,7.40
2017,02,13,11,52,7.50
2017,02,13,11,53,7.60
2017,02,13,11,54,7.60
2017,02,13,11,55,7.60
2017,02,13,11,56,7.60
2017,02,13,11,57,7.50
2017,02,13,11,58,7.40
2017,02,13,11,59,7.40
2017,02,13,12,00,7.30
2017,02,13,12,01,7.30
2017,02,13,12,02,7.30
2017,02,13,12,03,7.30
2017,02,13,12,04,7.30
2017,02,13,12,05,7.30
2017,02,13,12,06,7.40
2017,02,13,12,07,7.40
2017,02,13,12,08,7.40
2017,02,13,12,09,7.50
2017,02,13,12,10,7.50
2017,02,13,12,11,7.60
2017,02,13,12,12,7.60
2017,02,13,12,13,7.60
2017,02,13,12,14,7.70
2017,02,13,12,15,7.80
2017,02,13,12,16,7.80
2017,02,13,12,17,7.90
2017,02,13,12,18,8.00
2017,02,13,12,19,8.10
2017,02,13,12,20,8.10
2017,02,13,12,21,8.20
2017,02,13,12,22,8.20
2017,02,13,12,23,8.20
2017,02,13,12,24,8.30
2017,02,13,12,25,8.30
2017,02,13,12,26,8.30
2017,02,13,12,27,8.30
2017,02,13,12,28,8.20
2017,02,13,12,29,8.20
2017,02,13,12,30,8.20
2017,02,13,12,31,8.20
2017,02,13,12,32,8.10
2017,02,13,12,33,8.10
2017,02,13,12,34,8.10
2017,02,13,12,35,8.10
2017,02,13,12,36,8.20
2017,02,13,12,37,8.20
2017,02,13,12,38,8.20
2017,02,13,12,39,8.20
2017,02,13,12,40,8.20
2017,02,13,12,41,8.20
2017,02,13,12,42,8.30
2017,02,13,12,43,8.30
2017,02,13,12,44,8.40
2017,02,13,12,45,8.40
2017,02,13,12,46,8.40
2017,02,13,12,47,8.40
2017,02,13,12,48,8.50
2017,02,13,12,49,8.50
2017,02,13,12,50,8.50
2017,02,13,12,51,8.50
2017,02,13,12,52,8.50
2017,02,13,12,53,8.50
2017,02,13,12,54,8.60
2017,02,13,12,55,8.60
2017,02,13,12,56,8.50
2017,02,13,12,57,8.50
2017,02,13,12,58,8.50
2017,02,13,12,59,8.50
2017,02,13,13,00,8.50
2017,02,13,13,01,8.60
2017,02,13,13,02,8.60
2017,02,13,13,03,8.60
2017,02,13,13,04,8.60
2017,02,13,13,05,8.50
2017,02,13,13,06,8.50
2017,02,13,13,07,8.40
2017,02,13,13,08,8.30
2017,02,13,13,09,8.30
2017,02,13,13,10,8.30
2017,02,13,13,11,8.40
2017,02,13,13,12,8.40
2017,02,13,13,13,8.50
2017,02,13,13,14,8.50
2017,02,13,13,15,8.50
2017,02,13,13,16,8.50
2017,02,13,13,17,8.50
2017,02,13,13,18,8.50
2017,02,13,13,19,8.50
2017,02,13,13,20,8.60
2017,02,13,13,21,8.60
2017,02,13,13,22,8.60
2017,02,13,13,23,8.60
2017,02,13,13,24,8.70
2017,02,13,13,25,8.70
2017,02,13,13,26,8.70
2017,02,13,13,27,8.70
2017,02,13,13,28,8.70
2017,02,13,13,29,8.80
2017,02,13,13,30,8.80
2017,02,13,13,31,8.80
2017,02,13,13,32,8.70
2017,02,13,13,33,8.70
2017,02,13,13,34,8.70
2017,02,13,13,35,8.70
2017,02,13,13,36,8.70
2017,02,13,13,37,8.80
2017,02,13,13,38,8.90
2017,02,13,13,39,8.90
2017,02,13,13,40,9.00
2017,02,13,13,41,9.00
2017,02,13,13,42,9.00
2017,02,13,13,43,9.00
2017,02,13,13,44,8.90
2017,02,13,13,45,8.90
2017,02,13,13,46,8.90
2017,02,13,13,47,8.90
2017,02,13,13,48,8.90
2017,02,13,13,49,9.00
2017,02,13,13,50,9.00
2017,02,13,13,51,9.10
2017,02,13,13,52,9.10
2017,02,13,13,53,9.10
2017,02,13,13,54,9.10
2017,02,13,13,55,9.10
2017,02,13,13,56,9.10
2017,02,13,13,57,9.00
2017,02,13,13,58,9.00
2017,02,13,13,59,9.00
2017,02,13,14,00,9.00
2017,02,13,14,01,9.00
2017,02,13,14,02,9.00
2017,02,13,14,03,9.10
2017,02,13,14,04,9.10
2017,02,13,14,05,9.10
2017,02,13,14,06,9.10
2017,02,13,14,07,9.10
2017,02,13,14,08,9.10
2017,02,13,14,09,9.10
2017,02,13,14,10,9.20
2017,02,13,14,11,9.20
2017,02,13,14,12,9.20
2017,02,13,14,13,9.20
2017,02,13,14,14,9.20
2017,02,13,14,15,9.30
2017,02,13,14,16,9.30
2017,02,13,14,17,9.40
2017,02,13,14,18,9.40
2017,02,13,14,19,9.40
2017,02,13,14,20,9.40
2017,02,13,14,21,9.40
2017,02,13,14,22,9.30
2017,02,13,14,23,9.40
2017,02,13,14,24,9.40
2017,02,13,14,25,9.40
2017,02,13,14,26,9.30
2017,02,13,14,27,9.30
2017,02,13,14,28,9.30
2017,02,13,14,29,9.30
2017,02,13,14,30,9.40
2017,02,13,14,31,9.40
2017,02,13,14,32,9.40
2017,02,13,14,33,9.50
2017,02,13,14,34,9.50
2017,02,13,14,35,9.50
2017,02,13,14,36,9.50
2017,02,13,14,37,9.50
2017,02,13,14,38,9.50
2017,02,13,14,39,9.60
2017,02,13,14,40,9.60
2017,02,13,14,41,9.60
2017,02,13,14,42,9.50
2017,02,13,14,43,9.40
2017,02,13,14,44,9.40
2017,02,13,14,45,9.30
2017,02,13,14,46,9.30
2017,02,13,14,47,9.30
2017,02,13,14,48,9.30
2017,02,13,14,49,9.30
2017,02,13,14,50,9.30
2017,02,13,14,51,9.30
2017,02,13,14,52,9.40
2017,02,13,14,53,9.40
2017,02,13,14,54,9.50
2017,02,13,14,55,9.50
2017,02,13,14,56,9.50
2017,02,13,14,57,9.60
2017,02,13,14,58,9.60
2017,02,13,14,59,9.70
2017,02,13,15,00,9.70
2017,02,13,15,01,9.70
2017,02,13,15,02,9.70
2017,02,13,15,03,9.70
2017,02,13,15,04,9.70
2017,02,13,15,05,9.60
2017,02,13,15,06,9.60
2017,02,13,15,07,9.60
2017,02,13,15,08,9.60
2017,02,13,15,09,9.60
2017,02,13,15,10,9.60
2017,02,13,15,11,9.50
2017,02,13,15,12,9.50
2017,02,13,15,13,9.50
2017,02,13,15,14,9.40
2017,02,13,15,15,9.40
2017,02,13,15,16,9.40
2017,02,13,15,17,9.40
2017,02,13,15,18,9.50
2017,02,13,15,19,9.50
2017,02,13,15,20,9.50
2017,02,13,15,21,9.50
2017,02,13,15,22,9.50
2017,02,13,15,23,9.40
2017,02,13,15,24,9.40
2017,02,13,15,25,9.50
2017,02,13,15,26,9.50
2017,02,13,15,27,9.50
2017,02,13,15,28,9.40
2017,02,13,15,29,9.40
2017,02,13,15,30,9.40
2017,02,13,15,31,9.40
2017,02,13,15,32,9.40
2017,02,13,15,33,9.40
2017,02,13,15,34,9.40
2017,02,13,15,35,9.30
2017,02,13,15,36,9.30
2017,02,13,15,37,9.40
2017,02,13,15,38,9.30
2017,02,13,15,39,9.30
2017,02,13,15,40,9.30
2017,02,13,15,41,9.30
2017,02,13,15,42,9.30
2017,02,13,15,43,9.30
2017,02,13,15,44,9.30
2017,02,13,15,45,9.30
2017,02,13,15,46,9.30
2017,02,13,15,47,9.30
2017,02,13,15,48,9.30
2017,02,13,15,49,9.30
2017,02,13,15,50,9.30
2017,02,13,15,51,9.30
2017,02,13,15,52,9.30
2017,02,13,15,53,9.30
2017,02,13,15,54,9.30
2017,02,13,15,55,9.30
2017,02,13,15,56,9.30
2017,02,13,15,57,9.30
2017,02,13,15,58,9.30
2017,02,13,15,59,9.30
2017,02,13,16,00,9.30
2017,02,13,16,01,9.20
2017,02,13,16,02,9.20
2017,02,13,16,03,9.20
2017,02,13,16,04,9.20
2017,02,13,16,05,9.20
2017,02,13,16,06,9.20
2017,02,13,16,07,9.20
2017,02,13,16,08,9.20
2017,02,13,16,09,9.20
2017,02,13,16,10,9.20
2017,02,13,16,11,9.20
2017,02,13,16,12,9.20
2017,02,13,16,13,9.20
2017,02,13,16,14,9.10
2017,02,13,16,15,9.10
2017,02,13,16,16,9.10
2017,02,13,16,17,9.10
2017,02,13,16,18,9.20
2017,02,13,16,19,9.20
2017,02,13,16,20,9.10
2017,02,13,16,21,9.20
2017,02,13,16,22,9.10
2017,02,13,16,23,9.10
2017,02,13,16,24,9.10
2017,02,13,16,25,9.10
2017,02,13,16,26,9.20
2017,02,13,16,27,9.20
2017,02,13,16,28,9.20
2017,02,13,16,29,9.20
2017,02,13,16,30,9.20
2017,02,13,16,31,9.20
2017,02,13,16,32,9.20
2017,02,13,16,33,9.20
2017,02,13,16,34,9.20
2017,02,13,16,35,9.30
2017,02,13,16,36,9.30
2017,02,13,16,37,9.30
2017,02,13,16,38,9.30
2017,02,13,16,39,9.30
2017,02,13,16,40,9.30
2017,02,13,16,41,9.30
2017,02,13,16,42,9.30
2017,02,13,16,43,9.30
2017,02,13,16,44,9.30
2017,02,13,16,45,9.30
2017,02,13,16,46,9.30
2017,02,13,16,47,9.30
2017,02,13,16,48,9.30
2017,02,13,16,49,9.30
2017,02,13,16,50,9.20
2017,02,13,16,51,9.20
2017,02,13,16,52,9.20
2017,02,13,16,53,9.20
2017,02,13,16,54,9.20
2017,02,13,16,55,9.10
2017,02,13,16,56,9.10
2017,02,13,16,57,9.10
2017,02,13,16,58,9.10
2017,02,13,16,59,9.10
2017,02,13,17,00,9.10
2017,02,13,17,01,9.10
2017,02,13,17,02,9.10
2017,02,13,17,03,9.10
2017,02,13,17,04,9.10
2017,02,13,17,05,9.10
2017,02,13,17,06,9.10
2017,02,13,17,07,9.10
2017,02,13,17,08,9.10
2017,02,13,17,09,9.10
2017,02,13,17,10,9.00
2017,02,13,17,11,9.00
2017,02,13,17,12,9.00
2017,02,13,17,13,8.90
2017,02,13,17,14,8.90
2017,02,13,17,15,8.90
2017,02,13,17,16,8.80
2017,02,13,17,17,8.80
2017,02,13,17,18,8.80
2017,02,13,17,19,8.70
2017,02,13,17,20,8.70
2017,02,13,17,21,8.70
2017,02,13,17,22,8.60
2017,02,13,17,23,8.60
2017,02,13,17,24,8.60
2017,02,13,17,25,8.60
2017,02,13,17,26,8.60
2017,02,13,17,27,8.60
2017,02,13,17,28,8.50
2017,02,13,17,29,8.50
2017,02,13,17,30,8.40
2017,02,13,17,31,8.40
2017,02,13,17,32,8.30
2017,02,13,17,33,8.30
2017,02,13,17,34,8.20
2017,02,13,17,35,8.20
2017,02,13,17,36,8.20
2017,02,13,17,37,8.20
2017,02,13,17,38,8.10
2017,02,13,17,39,8.10
2017,02,13,17,40,8.10
2017,02,13,17,41,8.00
2017,02,13,17,42,7.80
2017,02,13,17,43,7.70
2017,02,13,17,44,7.60
2017,02,13,17,45,7.50
2017,02,13,17,46,7.40
2017,02,13,17,47,7.30
2017,02,13,17,48,7.20
2017,02,13,17,49,7.00
2017,02,13,17,50,6.90
2017,02,13,17,51,6.90
2017,02,13,17,52,6.80
2017,02,13,17,53,6.70
2017,02,13,17,54,6.70
2017,02,13,17,55,6.70
2017,02,13,17,56,6.70
2017,02,13,17,57,6.70
2017,02,13,17,58,6.70
2017,02,13,17,59,6.70
2017,02,13,18,00,6.70
2017,02,13,18,01,6.70
2017,02,13,18,02,6.70
2017,02,13,18,03,6.70
2017,02,13,18,04,6.80
2017,02,13,18,05,6.80
2017,02,13,18,06,6.80
2017,02,13,18,07,6.90
2017,02,13,18,08,6.90
2017,02,13,18,09,7.00